Regional Weather Roundup
Issued by NWS Upton, NY

Current Version | Previous Version | Text Only | Print | Product List | Glossary On
Versions: 1 2 3 4 5 6 7 8 9 10 11 12 13 14 15 16 17 18 19 20 21 22 23 24 25 26 27
000
ASUS41 KOKX 171708
RWROKX

REGIONAL WEATHER ROUNDUP
NATIONAL WEATHER SERVICE NEW YORK NY
100 PM EDT THU AUG 17 2017

NOTE: "FAIR" INDICATES FEW OR NO CLOUDS BELOW 12,000 FEET WITH NO
SIGNIFICANT WEATHER AND/OR OBSTRUCTIONS TO VISIBILITY.

NYZ071-072-176-178-NJZ106-104-171800-
NEW YORK CITY METRO AREA

CITY           SKY/WX    TMP DP  RH WIND       PRES   REMARKS
Central Park   SUNNY     81  62  52 VRB5      30.07F
Bronx Bot Gard   N/A     79  59  50 E13       30.07R
LaGuardia APRT MOSUNNY   79  65  62 NE12      30.04F
Kennedy INTL   MOSUNNY   79  62  56 SE10      30.06F
Breezy Point     N/A     73 N/A N/A E9          N/A
Newark/Liberty MOSUNNY   79  60  52 VRB7      30.05S
Teterboro      SUNNY     82  59  45 VRB5      30.03F
$$

NYZ177-179-078>081-171800-
LONG ISLAND NEW YORK

CITY           SKY/WX    TMP DP  RH WIND       PRES   REMARKS
Jones Beach      N/A     72 N/A N/A E9G15       N/A
Matinecock PT    N/A     72 N/A N/A E13         N/A
Farmingdale    SUNNY     77  57  50 SE10      30.06F
MacArthur/ISP  MOSUNNY   79  53  40 SE13      30.05F
Shirley        SUNNY     79  54  41 SE8       30.07S
Mt Sinai Harb    N/A    N/A N/A N/A NE5         N/A
Westhampton    MOSUNNY   76  52  43 SE10      30.08F
East Hampton   FAIR      75  52  44 SE8       30.06S
Montauk          N/A     77  46  33 VRB3      30.07F
$$

NYZ052-065-067-171800-
HUDSON VALLEY

CITY           SKY/WX    TMP DP  RH WIND       PRES   REMARKS
White Plains   MOSUNNY   78  59  51 VRB3      30.06F
Larchmont Harb   N/A     70 N/A N/A NE12        N/A
Croton On Huds   N/A     77 N/A N/A W2          N/A
Newburgh       MOSUNNY   77  61  57 VRB5      30.08F
Montgomery     PTSUNNY   76  59  55 VRB3      30.06F
Poughkeepsie   PTSUNNY   76  56  49 VRB3      30.05F
Albany         MOSUNNY   76  51  41 VRB5      30.05F
$$

NJZ001-105-106-008-010-013-015-019>022-104-171800-
NEW JERSEY

CITY           SKY/WX    TMP DP  RH WIND       PRES   REMARKS
Newark/Liberty MOSUNNY   79  60  52 VRB7      30.05S
Teterboro      SUNNY     82  59  45 VRB5      30.03F
Caldwell       SUNNY     80  61  52 VRB5      30.05F
Somerville     SUNNY     83  65  54 CALM      30.02F
Linden         FAIR      79  59  49 SE8       30.06S
Perth Amboy      N/A     73 N/A N/A E12         N/A
Sussex         SUNNY     78  62  57 CALM      30.05F
Andover          N/A     79  61  53 SW5       30.06F
Trenton        SUNNY     83  62  49 VRB5      30.03F
Millville      MOSUNNY   87  69  54 VRB7      30.03F HX  91
Atlantic City  SUNNY     83  69  62 E7        30.04S
Wrightstown    SUNNY     83  67  57 S6        30.00F
Toms River     SUNNY     83  67  58 VRB6      30.05F
Belmar         SUNNY     78  64  61 E8        30.07S
$$

PAZ047>061-062-071-171800-
EASTERN PENNSYLVANIA

CITY           SKY/WX    TMP DP  RH WIND       PRES   REMARKS
Philadelphia   MOSUNNY   86  65  49 CALM      30.02F
Allentown      SUNNY     83  64  52 S6        30.04F
Scranton       PTSUNNY   81  63  54 VRB5      30.04F
$$

CTZ002-004>006-009-010-012-RIZ004-006-007-MAZ004-011-015-171800-
SOUTHERN NEW ENGLAND
 IN CT

CITY           SKY/WX    TMP DP  RH WIND       PRES   REMARKS
Bradley INTL   PTSUNNY   77  50  38 CALM      30.06F
Hartford       SUNNY     77  51  40 MISG      30.05F
Danbury        PTSUNNY   79  60  52 VRB3      30.07F
Wtrbury/Oxford MOSUNNY   76  56  49 VRB3      30.08F
Norwalk Harbor   N/A     72 N/A N/A E8          N/A
Bridgeport     SUNNY     74  54  49 E8        30.06F
Meriden        SUNNY     77  52  41 VRB3      30.05F
New Haven      SUNNY     75  57  53 S9        30.07F
Chester        NOT AVBL
Groton         SUNNY     73  56  54 S12       30.05F
Wilimantic     SUNNY     78  50  37 W8        30.05F

 IN RI

CITY           SKY/WX    TMP DP  RH WIND       PRES   REMARKS
Providence     PTSUNNY   77  50  38 VRB3      30.05F
Block Island   SUNNY     74  49  41 E7        30.07F
Westerly       SUNNY     75  52  44 SE10      30.06F
 IN MA

CITY           SKY/WX    TMP DP  RH WIND       PRES   REMARKS
Boston         MOSUNNY   78  48  34 SW8       30.02F
Worcester      SUNNY     74  44  34 NW7       30.07F
Westfield      SUNNY     77  50  38 SW7       30.05F
Provincetown   SUNNY     75  53  46 W6        30.05F
Nantucket      CLOUDY    71  58  63 S8        30.05S
$$

ANZ330-335-338-340-345-350-353-355-171800-
COASTAL MARINE OBSERVATIONS


STATION/POSITION TIME  SKY/WX   TEMP    WIND        PRES    VSBY  WAVE
                                AIR SEA DIR/SP/G                  HT/PER
                 (UTC)          (F)     (DEG/KT/KT) (MB)    (MI)  (FT/S)
NY HARB ENTRANCE 1550            72 75   90/ 12/ 14 1017.4          3/ 8
GREAT SOUTH BAY  1615            72 78  110/ 12/ 14   N/A
23 SSW MONTAUK P 1550            70 72              1018.5          3/ 9
15 E BARNEGAT LI 1630               77                N/A           3/ 8
HUDSON CANYON    1550            74 76  120/  4/  4 1016.8          2/ 8
KINGS POINT      1624            74 74   50/  8/ 10 1017.6
EXECUTION ROCKS  NOT AVBL
WESTERN LI SOUND NOT AVBL
CENTRAL LI SOUND NOT AVBL
EASTERN LI SOUND NOT AVBL
ROBBINS REEF     1624                   180/ 15/ 17 1018.3
$$


>>>>>>>>>>>>>>>>>>>>>>>>>>>> KEY <<<<<<<<<<<<<<<<<<<<<<<<<<<
>                                                          <
>     SKY/WX - Sky Condition/Present Weather               <
>     TMP    - Temperature in Fahrenheit                   <
>     DP     - Dew Point in Fahrenheit                     <
>     RH     - Relative Humidity in Percent                <
>     WIND   - Direction (from) and Speed in MPH           <
>     PRES   - Mean Sea Level Pressure (inches of Hg)      <
>     WCI    - Wind Chill Index                            <
>     VSB    - VISIBILITY IN MILES                         <
>     HX     - HEAT INDEX                                  <
>     TC     - TEMPERATURE IN CELSIUS                      <
>     VRB    - VARIABLE WIND DIRECTION                     <
>                                                          <
>>>>>>>>>>>>>>>>>>>>>>>>>>>> KEY <<<<<<<<<<<<<<<<<<<<<<<<<<<




USA.gov is the U.S. government's official web portal to all federal, state and local government web resources and services.